| time (UTC) | temp F | wind direction | speed MPH | gust MPH | rain 1hr in | rain 24hr in | rain mn in | humidity % | barometer mb |
| 20260505152505 | 78 | 236 | 7.0 | 16.0 | 0.00 | 0.00 | 0.00 | 48 | 1010.4 |
| 20260505152008 | 78 | 359 | 7.0 | 12.0 | 0.00 | 0.00 | 0.00 | 47 | 1010.4 |
| 20260505151504 | 77 | 115 | 4.0 | 9.0 | 0.00 | 0.00 | 0.00 | 50 | 1010.3 |
| 20260505151002 | 77 | 359 | 3.0 | 11.0 | 0.00 | 0.00 | 0.00 | 49 | 1010.2 |
| 20260505150601 | 76 | 359 | 5.0 | 15.0 | 0.00 | 0.00 | 0.00 | 50 | 1010.4 |
| 20260505150116 | 76 | 276 | 9.0 | 16.0 | 0.00 | 0.00 | 0.00 | 49 | 1010.7 |
| 20260505140545 | 71 | 359 | 7.0 | 17.0 | 0.00 | 0.00 | 0.00 | 56 | 1011.0 |
| 20260505125031 | 68 | 239 | 7.0 | 15.0 | 0.00 | 0.00 | 0.00 | 61 | 1011.0 |
| 20260505124531 | 67 | 226 | 7.0 | 13.0 | 0.00 | 0.00 | 0.00 | 62 | 1011.1 |
| 20260505124030 | 67 | 219 | 9.0 | 13.0 | 0.00 | 0.00 | 0.00 | 62 | 1011.0 |
| 20260505123529 | 67 | 224 | 5.0 | 11.0 | 0.00 | 0.00 | 0.00 | 63 | 1011.0 |
| 20260505123045 | 67 | 252 | 5.0 | 13.0 | 0.00 | 0.00 | 0.00 | 63 | 1011.1 |
| 20260505122526 | 66 | 359 | 7.0 | 13.0 | 0.00 | 0.00 | 0.00 | 62 | 1011.0 |
| 20260505122026 | 66 | 250 | 5.0 | 14.0 | 0.00 | 0.00 | 0.00 | 63 | 1010.8 |
| 20260505121533 | 66 | 255 | 7.0 | 16.0 | 0.00 | 0.00 | 0.00 | 63 | 1010.9 |
| 20260505121026 | 66 | 243 | 8.0 | 16.0 | 0.00 | 0.00 | 0.00 | 63 | 1011.0 |
| 20260505120524 | 66 | 257 | 5.0 | 12.0 | 0.00 | 0.00 | 0.00 | 63 | 1010.9 |
| 20260505120036 | 66 | 278 | 4.0 | 12.0 | 0.00 | 0.00 | 0.00 | 64 | 1010.9 |
| 20260505115522 | 65 | 263 | 5.0 | 10.0 | 0.00 | 0.00 | 0.00 | 64 | 1010.9 |
| 20260505115022 | 65 | 226 | 6.0 | 11.0 | 0.00 | 0.00 | 0.00 | 65 | 1010.8 |
| 20260505114525 | 65 | 243 | 5.0 | 11.0 | 0.00 | 0.00 | 0.00 | 66 | 1010.8 |
| 20260505114020 | 64 | 198 | 7.0 | 12.0 | 0.00 | 0.00 | 0.00 | 66 | 1011.0 |
| 20260505113519 | 64 | 297 | 4.0 | 12.0 | 0.00 | 0.00 | 0.00 | 66 | 1010.9 |
| 20260505113019 | 64 | 359 | 3.0 | 12.0 | 0.00 | 0.00 | 0.00 | 67 | 1010.9 |
| 20260505112517 | 63 | 235 | 4.0 | 15.0 | 0.00 | 0.00 | 0.00 | 67 | 1010.9 |
| 20260505112016 | 63 | 240 | 9.0 | 15.0 | 0.00 | 0.00 | 0.00 | 67 | 1011.0 |
| 20260505111519 | 63 | 359 | 5.0 | 14.0 | 0.00 | 0.00 | 0.00 | 68 | 1010.9 |
| 20260505111014 | 63 | 243 | 7.0 | 12.0 | 0.00 | 0.00 | 0.00 | 68 | 1010.9 |
| 20260505110515 | 62 | 272 | 4.0 | 8.0 | 0.00 | 0.00 | 0.00 | 70 | 1010.9 |
| 20260505102004 | 59 | 359 | 4.0 | 6.0 | 0.00 | 0.00 | 0.00 | 74 | 1010.7 |
| 20260505101507 | 59 | 230 | 3.0 | 7.0 | 0.00 | 0.00 | 0.00 | 75 | 1010.8 |
| 20260505101004 | 59 | 242 | 4.0 | 8.0 | 0.00 | 0.00 | 0.00 | 75 | 1010.9 |
| 20260505100503 | 59 | 301 | 2.0 | 8.0 | 0.00 | 0.00 | 0.00 | 75 | 1010.6 |
| 20260505100002 | 59 | 283 | 3.0 | 9.0 | 0.00 | 0.00 | 0.00 | 75 | 1010.5 |
| 20260505095502 | 58 | 272 | 2.0 | 9.0 | 0.00 | 0.00 | 0.00 | 75 | 1010.3 |
| 20260505095001 | 58 | 267 | 5.0 | 9.0 | 0.00 | 0.00 | 0.00 | 75 | 1010.1 |
| 20260505094501 | 59 | 359 | 3.0 | 9.0 | 0.00 | 0.00 | 0.00 | 75 | 1009.9 |
| 20260505094001 | 59 | 359 | 3.0 | 9.0 | 0.00 | 0.00 | 0.00 | 75 | 1009.9 |
| 20260505093502 | 59 | 237 | 3.0 | 11.0 | 0.00 | 0.00 | 0.00 | 75 | 1009.8 |
| 20260505093101 | 59 | 359 | 4.0 | 11.0 | 0.00 | 0.00 | 0.00 | 75 | 1009.9 |
| 20260505092604 | 58 | 222 | 4.0 | 9.0 | 0.00 | 0.00 | 0.00 | 75 | 1009.8 |
| 20260505092059 | 59 | 214 | 3.0 | 9.0 | 0.00 | 0.00 | 0.00 | 75 | 1009.7 |
| 20260505091559 | 59 | 235 | 4.0 | 11.0 | 0.00 | 0.00 | 0.00 | 75 | 1009.6 |
| 20260505091057 | 58 | 233 | 5.0 | 11.0 | 0.00 | 0.00 | 0.00 | 75 | 1009.7 |
| 20260505090557 | 58 | 296 | 2.0 | 10.0 | 0.00 | 0.00 | 0.00 | 76 | 1009.7 |
| 20260505090109 | 58 | 359 | 2.0 | 9.0 | 0.00 | 0.00 | 0.00 | 76 | 1009.8 |
| 20260505085556 | 58 | 359 | 3.0 | 9.0 | 0.00 | 0.00 | 0.00 | 76 | 1009.8 |
| 20260505085056 | 57 | 233 | 3.0 | 7.0 | 0.00 | 0.00 | 0.00 | 76 | 1009.8 |
| 20260505084557 | 57 | 235 | 2.0 | 8.0 | 0.00 | 0.00 | 0.00 | 75 | 1009.8 |
| 20260505084055 | 57 | 216 | 4.0 | 8.0 | 0.00 | 0.00 | 0.00 | 75 | 1009.9 |
| 20260505083554 | 57 | 228 | 3.0 | 6.0 | 0.00 | 0.00 | 0.00 | 75 | 1009.9 |
| 20260505083107 | 57 | 227 | 2.0 | 5.0 | 0.00 | 0.00 | 0.00 | 74 | 1009.9 |
| 20260505082553 | 58 | 224 | 2.0 | 5.0 | 0.00 | 0.00 | 0.00 | 74 | 1009.9 |
| 20260505082052 | 58 | 359 | 2.0 | 5.0 | 0.00 | 0.00 | 0.00 | 74 | 1010.1 |
| 20260505081553 | 58 | 359 | 2.0 | 5.0 | 0.00 | 0.00 | 0.00 | 73 | 1010.0 |
| 20260505081051 | 58 | 247 | 3.0 | 5.0 | 0.00 | 0.00 | 0.00 | 73 | 1010.0 |
| 20260505080550 | 58 | 233 | 3.0 | 5.0 | 0.00 | 0.00 | 0.00 | 73 | 1010.0 |
| 20260505080055 | 58 | 233 | 2.0 | 6.0 | 0.00 | 0.00 | 0.00 | 72 | 1010.0 |
| 20260505075549 | 58 | 245 | 4.0 | 8.0 | 0.00 | 0.00 | 0.00 | 72 | 1010.0 |
| 20260505075049 | 59 | 237 | 2.0 | 8.0 | 0.00 | 0.00 | 0.00 | 72 | 1010.0 |
| 20260505074550 | 58 | 234 | 4.0 | 7.0 | 0.00 | 0.00 | 0.00 | 72 | 1010.0 |
| 20260505074053 | 58 | 255 | 3.0 | 6.0 | 0.00 | 0.00 | 0.00 | 72 | 1009.9 |
| 20260505073551 | 58 | 223 | 3.0 | 5.0 | 0.00 | 0.00 | 0.00 | 71 | 1009.9 |
| 20260505073056 | 58 | 240 | 2.0 | 5.0 | 0.00 | 0.00 | 0.00 | 71 | 1009.9 |
| 20260505072549 | 59 | 239 | 2.0 | 5.0 | 0.00 | 0.00 | 0.00 | 71 | 1009.9 |
| 20260505072046 | 59 | 223 | 2.0 | 6.0 | 0.00 | 0.00 | 0.00 | 71 | 1009.8 |
| 20260505071546 | 59 | 256 | 3.0 | 6.0 | 0.00 | 0.00 | 0.00 | 70 | 1009.9 |
| 20260505071046 | 59 | 359 | 3.0 | 9.0 | 0.00 | 0.00 | 0.00 | 70 | 1009.9 |
| 20260505070549 | 59 | 224 | 4.0 | 10.0 | 0.00 | 0.00 | 0.00 | 70 | 1009.9 |
| 20260505070052 | 59 | 228 | 3.0 | 10.0 | 0.00 | 0.00 | 0.00 | 70 | 1009.8 |
| 20260505065545 | 59 | 237 | 4.0 | 7.0 | 0.00 | 0.00 | 0.00 | 70 | 1009.8 |
| 20260505065045 | 59 | 219 | 3.0 | 7.0 | 0.00 | 0.00 | 0.00 | 70 | 1009.7 |
| 20260505064543 | 59 | 359 | 2.0 | 6.0 | 0.00 | 0.00 | 0.00 | 70 | 1009.9 |
| 20260505064047 | 59 | 264 | 3.0 | 6.0 | 0.00 | 0.00 | 0.00 | 70 | 1009.9 |
| 20260505063544 | 59 | 261 | 2.0 | 6.0 | 0.00 | 0.00 | 0.00 | 69 | 1009.9 |
| 20260505063043 | 59 | 226 | 3.0 | 6.0 | 0.00 | 0.00 | 0.00 | 69 | 1009.8 |
| 20260505062542 | 59 | 218 | 3.0 | 7.0 | 0.00 | 0.00 | 0.00 | 69 | 1009.9 |
| 20260505062042 | 59 | 231 | 2.0 | 8.0 | 0.00 | 0.00 | 0.00 | 69 | 1009.9 |
| 20260505061540 | 58 | 241 | 4.0 | 8.0 | 0.00 | 0.00 | 0.00 | 70 | 1010.0 |
| 20260505061040 | 58 | 272 | 1.0 | 5.0 | 0.00 | 0.00 | 0.00 | 69 | 1010.1 |
| 20260505060540 | 58 | 270 | 2.0 | 5.0 | 0.00 | 0.00 | 0.00 | 69 | 1010.0 |
| 20260505060038 | 59 | 359 | 1.0 | 4.0 | 0.00 | 0.00 | 0.00 | 69 | 1010.0 |
| 20260505055539 | 59 | 249 | 1.0 | 4.0 | 0.00 | 0.00 | 0.00 | 68 | 1010.0 |
| 20260505055040 | 59 | 233 | 2.0 | 5.0 | 0.00 | 0.00 | 0.00 | 68 | 1009.9 |
| 20260505054537 | 59 | 223 | 2.0 | 6.0 | 0.00 | 0.00 | 0.00 | 68 | 1009.9 |
| 20260505054036 | 59 | 359 | 3.0 | 6.0 | 0.00 | 0.00 | 0.00 | 68 | 1009.9 |
| 20260505053541 | 59 | 222 | 3.0 | 5.0 | 0.00 | 0.00 | 0.00 | 68 | 1009.9 |
| 20260505053036 | 59 | 242 | 2.0 | 7.0 | 0.00 | 0.00 | 0.00 | 68 | 1010.1 |
| 20260505052535 | 59 | 235 | 3.0 | 7.0 | 0.00 | 0.00 | 0.00 | 68 | 1010.0 |
| 20260505052034 | 59 | 359 | 2.0 | 4.0 | 0.00 | 0.00 | 0.00 | 68 | 1010.1 |
| 20260505051537 | 59 | 222 | 2.0 | 4.0 | 0.00 | 0.00 | 0.00 | 68 | 1010.2 |
| 20260505051033 | 59 | 228 | 1.0 | 4.0 | 0.00 | 0.00 | 0.00 | 68 | 1010.3 |
| 20260505050535 | 59 | 238 | 1.0 | 5.0 | 0.00 | 0.00 | 0.00 | 68 | 1010.3 |
| 20260505050104 | 59 | 208 | 1.0 | 5.0 | 0.00 | 0.00 | 0.00 | 67 | 1010.3 |
| 20260505041545 | 60 | 213 | 4.0 | 9.0 | 0.00 | 0.00 | 0.00 | 65 | 1010.4 |
| 20260505041025 | 60 | 226 | 3.0 | 9.0 | 0.00 | 0.00 | 0.00 | 65 | 1010.5 |
| 20260505040525 | 60 | 187 | 3.0 | 7.0 | 0.00 | 0.00 | 0.00 | 65 | 1010.5 |
| 20260505040024 | 60 | 213 | 3.0 | 7.0 | 0.00 | 0.00 | 0.00 | 65 | 1010.5 |
| 20260505035524 | 60 | 207 | 3.0 | 7.0 | 0.00 | 0.00 | 0.00 | 64 | 1010.5 |
| 20260505035024 | 60 | 205 | 3.0 | 8.0 | 0.00 | 0.00 | 0.00 | 64 | 1010.6 |
| 20260505034524 | 60 | 214 | 4.0 | 8.0 | 0.00 | 0.00 | 0.00 | 64 | 1010.5 |
| 20260505034026 | 60 | 177 | 3.0 | 7.0 | 0.00 | 0.00 | 0.00 | 64 | 1010.4 |
| 20260505033523 | 61 | 181 | 3.0 | 8.0 | 0.00 | 0.00 | 0.00 | 63 | 1010.5 |
| 20260505033024 | 61 | 188 | 5.0 | 8.0 | 0.00 | 0.00 | 0.00 | 63 | 1010.4 |
| 20260505032526 | 61 | 225 | 3.0 | 8.0 | 0.00 | 0.00 | 0.00 | 63 | 1010.5 |
| 20260505032022 | 61 | 198 | 2.0 | 8.0 | 0.00 | 0.00 | 0.00 | 62 | 1010.6 |
| 20260505031522 | 61 | 200 | 3.0 | 7.0 | 0.00 | 0.00 | 0.00 | 62 | 1010.6 |
| 20260505031022 | 61 | 171 | 3.0 | 7.0 | 0.00 | 0.00 | 0.00 | 61 | 1010.6 |
| 20260505030523 | 61 | 199 | 3.0 | 8.0 | 0.00 | 0.00 | 0.00 | 61 | 1010.7 |
| 20260505030024 | 61 | 201 | 4.0 | 8.0 | 0.00 | 0.00 | 0.00 | 61 | 1010.7 |
| 20260505025522 | 61 | 359 | 4.0 | 9.0 | 0.00 | 0.00 | 0.00 | 60 | 1010.8 |
| 20260505025022 | 61 | 212 | 3.0 | 9.0 | 0.00 | 0.00 | 0.00 | 60 | 1010.7 |
| 20260505024525 | 62 | 190 | 3.0 | 8.0 | 0.00 | 0.00 | 0.00 | 59 | 1010.7 |
| 20260505024021 | 62 | 198 | 2.0 | 8.0 | 0.00 | 0.00 | 0.00 | 59 | 1010.8 |
| 20260505023522 | 62 | 168 | 4.0 | 7.0 | 0.00 | 0.00 | 0.00 | 59 | 1010.8 |
| 20260505023023 | 62 | 234 | 3.0 | 7.0 | 0.00 | 0.00 | 0.00 | 58 | 1010.9 |
| 20260505022523 | 62 | 143 | 3.0 | 6.0 | 0.00 | 0.00 | 0.00 | 58 | 1010.9 |
| 20260505022021 | 63 | 210 | 2.0 | 6.0 | 0.00 | 0.00 | 0.00 | 57 | 1010.9 |
| 20260505021525 | 63 | 207 | 2.0 | 7.0 | 0.00 | 0.00 | 0.00 | 57 | 1010.9 |
| 20260505021020 | 63 | 194 | 3.0 | 8.0 | 0.00 | 0.00 | 0.00 | 57 | 1010.9 |
| 20260505020520 | 63 | 214 | 3.0 | 9.0 | 0.00 | 0.00 | 0.00 | 57 | 1011.0 |
| 20260505020021 | 63 | 230 | 3.0 | 9.0 | 0.00 | 0.00 | 0.00 | 56 | 1011.0 |
| 20260505015520 | 63 | 227 | 3.0 | 8.0 | 0.00 | 0.00 | 0.00 | 56 | 1010.9 |
| 20260505015020 | 63 | 217 | 3.0 | 8.0 | 0.00 | 0.00 | 0.00 | 56 | 1010.7 |
| 20260505014519 | 64 | 147 | 2.0 | 9.0 | 0.00 | 0.00 | 0.00 | 55 | 1010.6 |
| 20260505014019 | 64 | 178 | 4.0 | 9.0 | 0.00 | 0.00 | 0.00 | 54 | 1010.5 |
| 20260505013522 | 64 | 207 | 4.0 | 12.0 | 0.00 | 0.00 | 0.00 | 54 | 1010.5 |
| 20260505013021 | 64 | 359 | 5.0 | 12.0 | 0.00 | 0.00 | 0.00 | 54 | 1010.6 |
| 20260505012518 | 64 | 188 | 5.0 | 10.0 | 0.00 | 0.00 | 0.00 | 53 | 1010.4 |
| 20260505012018 | 65 | 189 | 3.0 | 11.0 | 0.00 | 0.00 | 0.00 | 53 | 1010.3 |
| 20260505011527 | 65 | 184 | 5.0 | 10.0 | 0.00 | 0.00 | 0.00 | 52 | 1010.3 |
| 20260505011021 | 65 | 216 | 4.0 | 10.0 | 0.00 | 0.00 | 0.00 | 50 | 1010.3 |
| 20260505010518 | 66 | 211 | 4.0 | 8.0 | 0.00 | 0.00 | 0.00 | 48 | 1010.2 |
| 20260505010017 | 66 | 222 | 4.0 | 8.0 | 0.00 | 0.00 | 0.00 | 46 | 1010.2 |
| 20260505005518 | 67 | 180 | 3.0 | 5.0 | 0.00 | 0.00 | 0.00 | 45 | 1010.1 |
| 20260505005017 | 67 | 183 | 2.0 | 5.0 | 0.00 | 0.00 | 0.00 | 43 | 1010.0 |
| 20260505004530 | 68 | 220 | 1.0 | 5.0 | 0.00 | 0.00 | 0.00 | 42 | 1010.0 |
| 20260505004016 | 68 | 218 | 3.0 | 8.0 | 0.00 | 0.00 | 0.00 | 42 | 1010.0 |
| 20260505003516 | 68 | 216 | 3.0 | 10.0 | 0.00 | 0.00 | 0.00 | 42 | 1010.0 |
| 20260505003017 | 68 | 254 | 4.0 | 11.0 | 0.00 | 0.00 | 0.00 | 41 | 1009.9 |
| 20260505002516 | 68 | 209 | 5.0 | 11.0 | 0.00 | 0.00 | 0.00 | 41 | 1009.9 |
| 20260505002016 | 69 | 228 | 5.0 | 10.0 | 0.00 | 0.00 | 0.00 | 41 | 1009.8 |
| 20260505001516 | 69 | 239 | 4.0 | 15.0 | 0.00 | 0.00 | 0.00 | 40 | 1009.6 |
| 20260505001016 | 69 | 215 | 7.0 | 15.0 | 0.00 | 0.00 | 0.00 | 40 | 1009.4 |
| 20260505000516 | 69 | 252 | 8.0 | 14.0 | 0.00 | 0.00 | 0.00 | 40 | 1009.4 |
| 20260505000026 | 69 | 219 | 5.0 | 12.0 | 0.00 | 0.00 | 0.00 | 39 | 1009.4 |
| 20260504235516 | 69 | 359 | 8.0 | 12.0 | 0.00 | 0.00 | 0.00 | 39 | 1009.3 |
| 20260504235015 | 70 | 221 | 7.0 | 16.0 | 0.00 | 0.00 | 0.00 | 39 | 1009.3 |
| 20260504234516 | 70 | 275 | 9.0 | 16.0 | 0.00 | 0.00 | 0.00 | 39 | 1009.3 |
| 20260504234015 | 70 | 247 | 7.0 | 16.0 | 0.00 | 0.00 | 0.00 | 38 | 1009.2 |
| 20260504233515 | 70 | 359 | 8.0 | 13.0 | 0.00 | 0.00 | 0.00 | 38 | 1009.2 |
| 20260504233015 | 71 | 224 | 5.0 | 16.0 | 0.00 | 0.00 | 0.00 | 38 | 1009.0 |
| 20260504232514 | 71 | 238 | 7.0 | 16.0 | 0.00 | 0.00 | 0.00 | 37 | 1009.0 |
| 20260504232013 | 71 | 216 | 10.0 | 15.0 | 0.00 | 0.00 | 0.00 | 37 | 1008.9 |
| 20260504231514 | 71 | 224 | 9.0 | 23.0 | 0.00 | 0.00 | 0.00 | 37 | 1008.8 |
| 20260504231014 | 71 | 264 | 7.0 | 23.0 | 0.00 | 0.00 | 0.00 | 37 | 1008.9 |
| 20260504230513 | 71 | 224 | 10.0 | 16.0 | 0.00 | 0.00 | 0.00 | 36 | 1008.7 |
| 20260504230017 | 72 | 241 | 8.0 | 15.0 | 0.00 | 0.00 | 0.00 | 36 | 1008.7 |
| 20260504225513 | 72 | 243 | 7.0 | 18.0 | 0.00 | 0.00 | 0.00 | 36 | 1008.7 |
| 20260504225014 | 72 | 262 | 9.0 | 19.0 | 0.00 | 0.00 | 0.00 | 36 | 1008.7 |
| 20260504224513 | 72 | 232 | 10.0 | 19.0 | 0.00 | 0.00 | 0.00 | 35 | 1008.8 |
| 20260504224013 | 72 | 209 | 8.0 | 19.0 | 0.00 | 0.00 | 0.00 | 36 | 1008.8 |
| 20260504223513 | 72 | 244 | 9.0 | 19.0 | 0.00 | 0.00 | 0.00 | 35 | 1008.7 |
| 20260504223013 | 72 | 233 | 8.0 | 17.0 | 0.00 | 0.00 | 0.00 | 36 | 1008.8 |
| 20260504222515 | 72 | 233 | 7.0 | 19.0 | 0.00 | 0.00 | 0.00 | 35 | 1008.8 |
| 20260504222016 | 73 | 226 | 7.0 | 19.0 | 0.00 | 0.00 | 0.00 | 35 | 1008.9 |
| 20260504221517 | 73 | 359 | 6.0 | 14.0 | 0.00 | 0.00 | 0.00 | 36 | 1008.8 |
| 20260504221010 | 73 | 235 | 8.0 | 14.0 | 0.00 | 0.00 | 0.00 | 35 | 1008.8 |
| 20260504220510 | 73 | 222 | 6.0 | 14.0 | 0.00 | 0.00 | 0.00 | 35 | 1008.9 |
| 20260504220010 | 73 | 262 | 6.0 | 17.0 | 0.00 | 0.00 | 0.00 | 35 | 1008.9 |
| 20260504215510 | 73 | 199 | 9.0 | 17.0 | 0.00 | 0.00 | 0.00 | 35 | 1009.0 |
| 20260504215014 | 73 | 251 | 9.0 | 17.0 | 0.00 | 0.00 | 0.00 | 35 | 1009.0 |
| 20260504214512 | 73 | 263 | 10.0 | 17.0 | 0.00 | 0.00 | 0.00 | 35 | 1009.1 |
| 20260504214010 | 73 | 359 | 7.0 | 20.0 | 0.00 | 0.00 | 0.00 | 35 | 1009.1 |
| 20260504213508 | 73 | 275 | 8.0 | 20.0 | 0.00 | 0.00 | 0.00 | 35 | 1009.2 |
| 20260504213026 | 73 | 230 | 12.0 | 20.0 | 0.00 | 0.00 | 0.00 | 35 | 1009.2 |
| 20260504212507 | 73 | 262 | 10.0 | 20.0 | 0.00 | 0.00 | 0.00 | 34 | 1009.2 |
| 20260504212007 | 73 | 256 | 6.0 | 14.0 | 0.00 | 0.00 | 0.00 | 35 | 1009.1 |
| 20260504211514 | 74 | 270 | 5.0 | 16.0 | 0.00 | 0.00 | 0.00 | 35 | 1009.2 |
| 20260504211006 | 73 | 208 | 7.0 | 14.0 | 0.00 | 0.00 | 0.00 | 35 | 1009.2 |
| 20260504210508 | 73 | 247 | 6.0 | 14.0 | 0.00 | 0.00 | 0.00 | 35 | 1009.1 |
| 20260504210008 | 73 | 214 | 10.0 | 18.0 | 0.00 | 0.00 | 0.00 | 34 | 1009.1 |
| 20260504205505 | 73 | 226 | 10.0 | 18.0 | 0.00 | 0.00 | 0.00 | 35 | 1009.1 |
| 20260504205006 | 73 | 230 | 8.0 | 24.0 | 0.00 | 0.00 | 0.00 | 35 | 1009.0 |
| 20260504204504 | 73 | 230 | 10.0 | 24.0 | 0.00 | 0.00 | 0.00 | 34 | 1009.0 |
| 20260504204003 | 73 | 205 | 9.0 | 17.0 | 0.00 | 0.00 | 0.00 | 35 | 1009.1 |
| 20260504203508 | 73 | 199 | 7.0 | 24.0 | 0.00 | 0.00 | 0.00 | 35 | 1009.1 |
| 20260504203007 | 73 | 224 | 10.0 | 24.0 | 0.00 | 0.00 | 0.00 | 35 | 1009.2 |
| 20260504202501 | 73 | 248 | 11.0 | 21.0 | 0.00 | 0.00 | 0.00 | 35 | 1009.3 |
| 20260504202003 | 73 | 359 | 10.0 | 21.0 | 0.00 | 0.00 | 0.00 | 35 | 1009.3 |
| 20260504201504 | 73 | 229 | 4.0 | 16.0 | 0.00 | 0.00 | 0.00 | 35 | 1009.1 |
| 20260504201002 | 73 | 263 | 8.0 | 15.0 | 0.00 | 0.00 | 0.00 | 34 | 1009.3 |
| 20260504200600 | 73 | 359 | 8.0 | 15.0 | 0.00 | 0.00 | 0.00 | 35 | 1009.3 |
| 20260504200100 | 73 | 218 | 10.0 | 18.0 | 0.00 | 0.00 | 0.00 | 36 | 1009.2 |
| 20260504195602 | 73 | 201 | 9.0 | 18.0 | 0.00 | 0.00 | 0.00 | 35 | 1009.3 |
| 20260504195059 | 73 | 359 | 5.0 | 20.0 | 0.00 | 0.00 | 0.00 | 36 | 1009.4 |
| 20260504194608 | 73 | 359 | 9.0 | 20.0 | 0.00 | 0.00 | 0.00 | 36 | 1009.4 |
| 20260504194058 | 73 | 233 | 8.0 | 17.0 | 0.00 | 0.00 | 0.00 | 37 | 1009.4 |
| 20260504193558 | 73 | 324 | 8.0 | 15.0 | 0.00 | 0.00 | 0.00 | 36 | 1009.4 |
| 20260504193109 | 72 | 235 | 9.0 | 14.0 | 0.00 | 0.00 | 0.00 | 37 | 1009.3 |
| 20260504192555 | 72 | 316 | 8.0 | 21.0 | 0.00 | 0.00 | 0.00 | 36 | 1009.4 |
| 20260504192055 | 72 | 305 | 11.0 | 23.0 | 0.00 | 0.00 | 0.00 | 36 | 1009.5 |
| 20260504191555 | 72 | 268 | 13.0 | 23.0 | 0.00 | 0.00 | 0.00 | 35 | 1009.8 |
| 20260504191054 | 72 | 210 | 6.0 | 16.0 | 0.00 | 0.00 | 0.00 | 35 | 1009.6 |
| 20260504190557 | 73 | 231 | 10.0 | 17.0 | 0.00 | 0.00 | 0.00 | 35 | 1009.7 |
| 20260504190113 | 73 | 359 | 4.0 | 12.0 | 0.00 | 0.00 | 0.00 | 36 | 1009.7 |
| 20260504185553 | 72 | 318 | 4.0 | 19.0 | 0.00 | 0.00 | 0.00 | 37 | 1009.7 |
| 20260504185051 | 72 | 18 | 8.0 | 19.0 | 0.00 | 0.00 | 0.00 | 37 | 1009.8 |
| 20260504184559 | 72 | 217 | 10.0 | 23.0 | 0.00 | 0.00 | 0.00 | 36 | 1009.9 |
| 20260504184050 | 71 | 185 | 11.0 | 23.0 | 0.00 | 0.00 | 0.00 | 36 | 1010.3 |
| 20260504183552 | 71 | 250 | 11.0 | 23.0 | 0.00 | 0.00 | 0.00 | 37 | 1010.3 |
| 20260504183048 | 71 | 359 | 9.0 | 23.0 | 0.00 | 0.00 | 0.00 | 36 | 1010.2 |
| 20260504182550 | 71 | 359 | 11.0 | 24.0 | 0.00 | 0.00 | 0.00 | 35 | 1010.4 |
| 20260504182046 | 71 | 359 | 11.0 | 18.0 | 0.00 | 0.00 | 0.00 | 38 | 1010.5 |
| 20260504181545 | 71 | 305 | 8.0 | 16.0 | 0.00 | 0.00 | 0.00 | 36 | 1010.5 |
| 20260504181044 | 71 | 230 | 8.0 | 15.0 | 0.00 | 0.00 | 0.00 | 38 | 1010.7 |
| 20260504180546 | 71 | 264 | 8.0 | 20.0 | 0.00 | 0.00 | 0.00 | 36 | 1010.7 |
| 20260504180044 | 71 | 231 | 8.0 | 20.0 | 0.00 | 0.00 | 0.00 | 36 | 1010.8 |
| 20260504175541 | 70 | 359 | 8.0 | 21.0 | 0.00 | 0.00 | 0.00 | 37 | 1010.9 |
| 20260504175043 | 70 | 241 | 10.0 | 21.0 | 0.00 | 0.00 | 0.00 | 37 | 1011.0 |
| 20260504174540 | 70 | 285 | 4.0 | 21.0 | 0.00 | 0.00 | 0.00 | 38 | 1011.0 |
| 20260504174040 | 70 | 211 | 10.0 | 23.0 | 0.00 | 0.00 | 0.00 | 38 | 1011.1 |
| 20260504173539 | 70 | 241 | 12.0 | 23.0 | 0.00 | 0.00 | 0.00 | 37 | 1011.0 |
| 20260504173047 | 70 | 264 | 10.0 | 17.0 | 0.00 | 0.00 | 0.00 | 38 | 1010.9 |
| 20260504172537 | 69 | 266 | 11.0 | 18.0 | 0.00 | 0.00 | 0.00 | 38 | 1011.1 |
| 20260504172037 | 69 | 359 | 11.0 | 18.0 | 0.00 | 0.00 | 0.00 | 38 | 1011.1 |
| 20260504171536 | 69 | 233 | 10.0 | 22.0 | 0.00 | 0.00 | 0.00 | 38 | 1011.1 |
| 20260504171035 | 69 | 279 | 12.0 | 22.0 | 0.00 | 0.00 | 0.00 | 39 | 1011.2 |
| 20260504170534 | 69 | 359 | 10.0 | 19.0 | 0.00 | 0.00 | 0.00 | 39 | 1011.5 |